Regional Weather Roundup
Issued by NWS

Home | Current Version | Previous Version | Text Only | Print | Product List | Glossary Off
Versions: 1 2 3 4 5 6 7 8 9 10 11 12 13 14 15 16 17 18 19 20 21 22 23 24 25 26 27 28 29 30 31 32 33 34 35 36 37 38 39 40 41 42 43 44 45 46 47 48 49 50

000
ASUS44 KMEG 011910
RWRTN
TENNESSEE HOURLY STATE WEATHER ROUNDUP
NATIONAL WEATHER SERVICE MEMPHIS TN
200 PM CDT WED OCT 01 2014

TNZ002-004-019-021-049-052-054-088>092-012000-
WEST TENNESSEE

CITY           SKY/WX    TMP DP  RH WIND       PRES   REMARKS
MEMPHIS INTL   MOSUNNY   89  65  44 S9        29.90F HX  91
JACKSON        MOSUNNY   87  61  41 VRB6      29.93F
DYERSBURG      PTSUNNY   88  59  37 S10       29.92F
UNION CITY     SUNNY     86  63  45 SW9       29.91F
PARIS          MOSUNNY   84  59  42 S9        29.94F
LEXINGTON      SUNNY     84  57  39 SW7       29.93F
SAVANNAH       MOSUNNY   86  57  37 VRB7      29.94F
$$

TNZ008-025-027-028-033-062-065-066-012000-
NORTH MIDDLE TENNESSEE

CITY           SKY/WX    TMP DP  RH WIND       PRES   REMARKS
NASHVILLE      MOSUNNY   86  55  34 VRB5      29.96F
PORTLAND       SUNNY     84  52  32 CALM      29.96F
CLARKSVILLE    MOSUNNY   88  57  34 SW10      29.93F
LEBANON        PTSUNNY   84  50  30 CALM      29.95F
SMYRNA         MOSUNNY   88  54  31 SW12      29.96F
MURFREESBORO   SUNNY     86  54  33 SE3       29.95
COOKEVILLE     SUNNY     84  55  37 VRB3      29.99F
LIVINGSTON     SUNNY     81  50  33 VRB6      30.01
GALLATIN       MOSUNNY   87  55  33 S8        29.97F
CROSSVILLE     SUNNY     80  43  26 W9        30.04F
$$

TNZ061-075-076-078-094-096-097-012000-
SOUTH MIDDLE TENNESSEE

CITY           SKY/WX    TMP DP  RH WIND       PRES   REMARKS
LEWISBURG      PTSUNNY   86  60  41 NW5       29.96F
FAYETTEVILLE   SUNNY     82  55  39 SE5       29.98F
TULLAHOMA      SUNNY     84  55  37 SW8       29.99F
WINCHESTER     MOSUNNY   81  55  41 CALM      29.99F
MCMINNVILLE    SUNNY     82  57  42 W5        29.99F
COLUMBIA       MOSUNNY   90  61  37 SE3       29.94F
SHELBYVILLE    MOSUNNY   84  63  48 W6        29.98F
$$

TNZ017-018-042-046-047-012000-
NORTHEAST TENNESSEE

CITY           SKY/WX    TMP DP  RH WIND       PRES   REMARKS
TRI CITIES     MOSUNNY   81  47  30 N8        30.02F
ELIZABETHTON   PTCLDY    79  48  34 S5        30.02F
$$

TNZ012-013-036-069-073-074-012000-
CENTRAL EAST TENNESSEE

CITY           SKY/WX    TMP DP  RH WIND       PRES   REMARKS
KNOXVILLE      PTSUNNY   81  53  37 CALM      29.99F
OAK RIDGE      MOSUNNY   81  54  39 CALM      30.01F
GATLINBURG     CLEAR     81  52  36 CALM      29.99F
MORRISTOWN     CLEAR     81  54  39 NW8       30.02F
$$

TNZ083-085-099-012000-
SOUTHEAST TENNESSEE

CITY           SKY/WX    TMP DP  RH WIND       PRES   REMARKS
CHATTANOOGA    PTSUNNY   83  58  42 VRB3      29.98F
$$

SKY/WX REPORTED AS FAIR MEANS FEW OR NO CLOUDS BELOW
12 THOUSAND FEET.




USA.gov is the U.S. government's official web portal to all federal, state and local government web resources and services.